Location: PSU-Greenbush Astrophysical Observatory
(37.5140°N, 94.9880°W)
Time: 05:13:53
(UTC-06:00)

Transit 2A - Pass Details

Date: 28 January 2020
Orbit: 600 x 959 km, 66.7° (Epoch: 22 February)

Event Time Altitude Azimuth Distance (km) Brightness Sun altitude
Rises 18:29:45 0° 188° (S) 2,937 9.4 -10.3°
Reaches altitude 10° 18:32:10 10° 181° (S) 1,994 8.4 -10.8°
Maximum altitude 18:36:18 39° 112° (ESE) 918 6.1 -11.6°
Enters shadow 18:39:34 15° 48° (NE) 1,666 7.2 -12.2°
Drops below altitude 10° 18:40:20 10° 44° (NE) 1,943 - -12.3°
Sets 18:42:40 0° 36° (NE) 2,852 - -12.8°
